Vertical_Velocity
2 -1 -1 -1 -1 -1 -1 -1 -1 -2 -1 -0 -0 -0 -2 -4 -3 -2 -2 -3 -2 -1 -1 -2 -2 -1 1 1 -1 2 3 5 3 2 1 3 1 4 -9 1 0 -3 1 1 7 8 5
-1 -0 1 0 1 -1 0 -1 -1 -1 -1 -0 -2 -1 0 -3 -4 -1 0 -1 -1 -1 -0 -2 -2 0 0 3 -3 2 2 2 2 3 3 3 1 8 5 2 1 6 7 0 5 9 -2
-0 -1 -0 -0 1 0 -2 -1 -0 -1 -0 -2 -1 -1 -2 0 -1 -1 -2 -1 -2 -1 -1 -1 -1 -1 -1 0 1 -0 2 2 4 4 2 3 5 8 11 4 1 1 -5 -2 9 3 -5
-1 -1 -0 -1 1 -1 -1 -1 -1 -0 -1 -1 -1 -1 -2 -2 1 -2 -2 -2 -2 -2 -3 -1 -2 -2 1 -1 -3 -0 0 -1 -1 0 2 2 3 4 -1 0 1 1 2 1 6 10 4
-1 -1 -1 -1 1 -1 -1 -1 -1 -1 -1 -2 -0 -1 -2 -1 1 -1 -2 -2 -2 -2 -3 -1 -1 1 -0 2 0 -0 -4 -4 -2 -1 -1 2 4 6 8 4 3 -4 -13 0 5 9 1
1 -1 -1 1 -0 -1 -1 -1 -0 0 0 -1 -2 -1 -0 -1 -1 -0 -3 -3 -3 -3 -0 1 -1 -0 3 1 -0 1 2 -3 -3 -1 -1 -3 2 -2 1 11 -12 -3 2 4 -1 -7 9
-0 -1 -1 -0 -1 -0 -1 -0 -0 -0 -0 0 -0 -3 -2 -2 -3 -2 1 -4 -2 -10 1 3 2 3 -1 1 -2 0 -0 2 1 -0 3 15 10 9 11 26 23 14 3 -8 -15 5 -5
-0 -1 -1 -1 -2 -1 -0 0 -2 -0 -2 -2 -2 -2 -3 -2 -4 -1 -4 -1 -2 -3 -3 1 -2 -2 -2 -4 -2 -2 -0 -8 -9 -6 -5 -0 -2 20 1 -3 -1 8 5 -5 -13 -9 29
1 -1 -1 -0 -1 0 -0 -1 -1 -1 -2 -2 -2 -1 -2 -3 -1 -0 -3 -4 -2 -2 1 2 2 1 -5 -7 -4 -5 -10 -10 -8 -6 1 -2 -11 8 1 -5 -3 1 6 -0 4 -8 -0
-1 -0 -0 -1 -2 -1 -2 -1 -1 -2 -1 -2 -2 -2 -5 -4 -1 -5 -5 -3 -1 -2 2 2 -1 -1 -10 -5 -0 -1 -2 -6 -4 -0 -5 -5 -1 -1 -4 -3 -6 -9 12 5 0 9 2
-2 -0 -2 -1 -3 -2 -2 0 -1 -2 -1 -3 -3 -5 -2 -6 -4 -4 -6 -3 -3 1 3 1 -3 0 0 -12 -3 -5 -2 -5 2 -6 3 -5 -8 -11 5 15 14 -6 -0 -2 -1 -1 16
-1 -0 -1 -2 -3 -1 -1 -1 -2 -4 -1 -4 -5 -5 -1 -3 -4 -4 -2 -3 -4 -3 5 -2 -2 -4 -5 -4 4 1 -6 2 -1 -3 8 16 -11 0 5 -14 1 -3 -1 0 -2 4 17
-1 1 -1 -4 0 -0 -1 -2 -1 -2 -3 -4 -4 -4 -4 -4 -4 -2 -3 -5 -1 -4 0 3 -1 -3 -2 -3 -2 -9 -9 6 -7 -12 -14 -4 2 12 -6 -18 -5 10 -5 -7 -7 13 -6
-1 -0 -1 -3 0 -2 -0 -1 -1 -1 -2 -3 -3 -4 -4 -3 -3 -2 -5 -9 -6 1 -3 -3 -3 -6 -2 -5 -12 -11 -4 2 1 -7 -7 2 -40 16 -16 12 5 -10 14 8 2 3 -0
-1 -1 1 -0 -3 -1 0 -2 -2 -3 -2 -2 -4 -2 -1 -1 -0 -2 -6 -7 1 -1 -2 -5 -5 -5 -4 -4 -6 -6 -2 4 1 2 8 -1 -17 -21 10 -7 15 -10 7 1 8 -4 18
1 -1 -0 2 -4 0 0 -2 -3 -4 -3 -2 -2 -1 -1 -2 -2 -9 1 -5 -2 -3 -3 -3 3 -3 -1 -2 -5 -2 -3 6 -5 0 -3 -4 -20 -6 -7 -4 14 12 4 -10 -3 2 -3
0 -2 2 -1 -4 -2 -1 -1 -2 -1 -3 -2 -3 -4 -5 -4 -6 3 -9 -4 -3 -2 -7 -2 -4 -1 -1 6 -0 -1 -4 13 -1 -5 1 -1 12 -27 4 -4 -2 -7 1 -5 4 6 5
-2 -0 2 -3 -2 -2 -3 -1 -1 -2 -2 -2 -3 -3 1 -4 -3 -6 -4 -2 -5 -6 1 -1 -5 1 9 -5 -6 2 5 7 -2 -0 -16 5 -4 -6 14 0 -0 -2 -3 0 5 -8 0
-3 0 2 -3 -3 2 -3 -4 -2 -2 -2 -3 -3 -2 -3 -6 -3 -8 -3 -2 -2 -6 4 -4 -2 3 -0 -3 -0 7 3 11 -7 -2 -4 4 8 -4 8 7 0 -7 -5 0 0 1 1
1 1 -0 -3 -3 -2 -1 -3 -2 -4 -5 -2 -4 -5 -3 -3 -6 -4 -1 -1 -2 0 -0 -4 -1 3 -3 -3 2 -7 0 -11 1 -1 1 2 12 2 5 3 3 -2 -2 -1 0 7 2
-1 -0 -1 -1 -0 -2 -1 -2 -2 -3 -3 -3 -4 -1 -1 -4 -5 -3 -2 -1 -8 1 -2 -5 1 0 2 -3 -6 0 0 -3 0 1 -0 -1 9 1 -1 -1 -1 -2 -2 -2 -4 0 3
0 -1 -1 -0 -1 -2 1 -2 -2 -3 -4 0 -0 -2 -4 -3 -3 -4 1 -3 -5 2 -3 -2 -2 1 -0 -0 1 -13 -1 5 -2 1 -0 1 3 1 1 -1 -0 -2 -2 -2 -1 -0 -2
-0 1 -1 -0 -1 -1 -1 -1 -2 -1 -3 -2 -2 -0 -3 -5 -3 -1 -3 0 -3 1 -4 -5 -1 1 -3 -2 0 -0 0 -0 1 -2 -2 -3 2 5 9 -0 0 12 -5 -3 -3 -1 -1
1 0 -0 -0 -1 -2 -1 -2 -1 -2 -3 -1 -2 -4 -4 -4 -4 -2 -7 -0 -1 -1 -4 -0 1 -0 -0 -4 -2 -2 -2 0 3 0 0 -4 2 2 6 1 5 -1 -2 -2 -2 -1 -1
3 -1 -1 -1 -0 -2 -0 -3 -2 -2 -2 -1 -5 -4 -2 -5 -3 -2 -7 0 -0 -5 -4 -3 -1 1 -0 -5 -6 -5 2 -0 -3 -2 0 -2 -0 3 8 0 -2 -5 -4 -2 -2 -5 -1
2 -1 -1 -1 -1 -1 -1 -2 -2 -2 -2 -2 -3 -3 -2 -2 -0 -4 -3 -2 -2 -4 -0 -2 -2 -0 -2 -4 0 -0 -1 -4 -4 1 -4 -1 -1 0 -3 3 3 -1 -1 -1 -1 -2 -1
1 -2 -1 -2 -1 -1 -1 -1 -1 -1 -2 -2 -4 -2 -2 0 -4 -4 -3 -2 -2 -3 -3 -2 1 -2 -3 -3 -3 -3 1 -2 -1 -4 -13 -10 -6 -6 -1 -1 -3 -2 0 -2 -2 -5 -1
-2 -1 -1 -1 -1 -2 -2 -1 -2 0 -2 -3 -1 -3 -2 -2 -4 -3 -3 -1 -1 -1 -4 -2 0 -3 -3 -5 -2 -2 -1 -2 -3 -0 -3 -2 -3 -2 0 -2 1 -1 -1 -2 -1 -0 -0
-2 -2 0 -0 -0 -1 -1 -0 -1 -1 -1 -3 -1 -4 -1 -3 -3 -4 -2 -2 -1 -2 -2 -4 -4 -3 -6 -4 -3 -2 -3 -3 -0 4 -1 -3 -2 -2 -1 -3 -2 -1 -1 -2 -2 -2 -2
Height
3121 3119 3117 3115 3112 3110 3108 3105 3102 3099 3097 3094 3091 3087 3084 3080 3077 3073 3069 3066 3063 3060 3057 3054 3051 3048 3046 3044 3041 3038 3036 3035 3034 3033 3031 3031 3029 3029 3025 3026 3028 3020 3019 3020 3021 3021 3020
3121 3118 3115 3114 3111 3108 3106 3103 3101 3098 3095 3091 3088 3084 3081 3077 3074 3070 3067 3063 3060 3056 3053 3050 3047 3044 3042 3039 3034 3031 3029 3027 3026 3024 3024 3023 3022 3022 3018 3016 3017 3016 3014 3010 3011 3012 3012
3119 3117 3114 3112 3110 3107 3104 3102 3099 3096 3092 3089 3085 3081 3078 3074 3071 3067 3063 3059 3056 3052 3049 3046 3043 3039 3035 3034 3027 3024 3021 3018 3016 3016 3015 3015 3015 3015 3012 3010 3008 3007 3001 3000 2998 3000 2999
3117 3115 3113 3110 3108 3105 3103 3100 3097 3094 3090 3086 3083 3079 3075 3072 3068 3063 3059 3055 3051 3048 3043 3040 3037 3032 3026 3022 3019 3017 3015 3013 3011 3010 3009 3009 3008 3006 3004 3005 3001 3001 2997 2990 2993 2995 2993
3116 3113 3111 3109 3106 3104 3101 3098 3095 3092 3088 3084 3081 3077 3073 3069 3066 3060 3055 3051 3046 3043 3039 3034 3029 3026 3021 3017 3014 3011 3009 3008 3006 3004 3003 3001 3001 3000 2998 2997 2993 2992 2982 2986 2986 2991 2991
3114 3111 3109 3107 3104 3102 3100 3097 3093 3089 3086 3082 3078 3074 3070 3066 3063 3058 3053 3047 3041 3036 3032 3028 3022 3023 3017 3011 3007 3006 3003 3000 3001 2999 2999 2999 2996 2993 2994 2993 2980 2984 2980 2979 2977 2985 2984
3113 3110 3108 3105 3103 3101 3098 3095 3091 3087 3083 3079 3075 3071 3067 3063 3058 3054 3050 3044 3041 3031 3024 3021 3016 3013 3011 3008 3004 3001 3000 3000 2998 2997 2999 2998 2993 2989 2987 2985 2981 2978 2976 2973 2971 2974 2976
3112 3109 3107 3104 3102 3099 3096 3092 3088 3084 3080 3076 3072 3067 3063 3058 3054 3049 3044 3039 3033 3031 3017 3011 3009 3009 3008 3005 3003 2997 2997 2996 2995 2993 2993 2993 2988 2988 2980 2977 2973 2969 2967 2966 2963 2967 2966
3110 3108 3105 3102 3100 3097 3094 3089 3085 3082 3077 3073 3068 3064 3058 3054 3049 3044 3038 3033 3027 3022 3017 3011 3009 3007 3006 3004 2999 2993 2992 2989 2990 2989 2988 2987 2986 2977 2975 2973 2970 2967 2966 2964 2963 2959 2959
3108 3106 3104 3101 3098 3095 3091 3087 3083 3079 3074 3069 3064 3059 3054 3049 3046 3037 3031 3026 3020 3015 3012 3013 3008 3004 3002 3002 2998 2994 2989 2988 2988 2986 2983 2982 2978 2975 2973 2972 2968 2965 2966 2962 2960 2961 2955
3106 3104 3102 3099 3096 3093 3089 3084 3079 3075 3071 3065 3060 3056 3050 3042 3037 3032 3027 3020 3014 3010 3012 3014 3008 3006 3004 3003 2999 2995 2991 2987 2986 2984 2984 2981 2976 2973 2971 2969 2965 2962 2960 2958 2955 2953 2954
3105 3102 3100 3096 3093 3090 3085 3081 3076 3071 3067 3062 3057 3052 3047 3041 3034 3029 3023 3017 3012 3012 3015 3014 3010 3005 3006 3001 3000 2995 2993 2990 2986 2984 2981 2978 2975 2972 2969 2968 2964 2960 2956 2952 2947 2944 2941
3102 3100 3097 3093 3090 3086 3082 3079 3073 3068 3063 3057 3052 3046 3041 3036 3032 3025 3020 3015 3015 3014 3018 3015 3009 3006 3006 3001 2998 2995 2994 2991 2989 2984 2980 2976 2973 2971 2968 2965 2961 2957 2955 2946 2935 2927 2926
3099 3097 3093 3090 3087 3084 3080 3075 3071 3066 3060 3053 3049 3043 3037 3031 3027 3022 3018 3015 3016 3019 3016 3015 3011 3009 3009 3003 3000 2998 2996 2992 2990 2987 2982 2977 2972 2970 2967 2966 2961 2956 2954 2950 2941 2928 2926
3096 3093 3089 3086 3083 3080 3076 3072 3068 3063 3057 3051 3045 3039 3033 3029 3024 3020 3016 3015 3020 3018 3016 3012 3009 3009 3009 3008 3003 3000 2997 2994 2990 2988 2987 2979 2972 2967 2965 2962 2960 2954 2951 2949 2944 2936 2927
3092 3088 3086 3082 3079 3076 3072 3069 3063 3059 3054 3048 3041 3034 3030 3026 3022 3017 3017 3017 3017 3015 3013 3014 3011 3011 3008 3006 3003 2999 2996 2994 2990 2989 2986 2981 2972 2965 2962 2959 2956 2953 2951 2948 2944 2937 2930
3088 3085 3082 3078 3076 3072 3069 3065 3060 3055 3048 3043 3037 3031 3026 3023 3019 3017 3014 3015 3014 3014 3012 3013 3012 3011 3008 3005 3003 2999 2997 2994 2987 2985 2984 2980 2973 2964 2960 2957 2954 2952 2949 2951 2950 2943 2935
3083 3081 3078 3075 3072 3069 3065 3061 3056 3051 3045 3038 3034 3030 3025 3021 3019 3015 3015 3014 3014 3013 3012 3010 3009 3008 3006 3003 3000 2997 2995 2992 2986 2984 2978 2976 2970 2963 2959 2954 2953 2951 2951 2952 2950 2942 2939
3080 3077 3074 3072 3069 3065 3061 3057 3052 3047 3041 3035 3031 3028 3024 3019 3017 3015 3013 3013 3012 3011 3009 3009 3009 3007 3004 3001 2999 2993 2992 2991 2984 2981 2976 2973 2968 2961 2956 2956 2954 2952 2951 2950 2947 2946 2941
3074 3073 3070 3068 3065 3061 3057 3052 3047 3043 3037 3033 3029 3025 3022 3020 3018 3016 3014 3013 3011 3010 3007 3006 3007 3004 3000 2998 2998 2993 2990 2986 2981 2978 2973 2969 2966 2964 2962 2960 2957 2954 2951 2948 2945 2945 2943
3070 3069 3066 3064 3060 3056 3053 3047 3044 3039 3034 3031 3027 3024 3020 3018 3015 3014 3013 3011 3011 3009 3006 3005 3005 3002 2998 2994 2991 2990 2987 2982 2979 2976 2973 2969 2966 2962 2959 2957 2956 2954 2952 2949 2945 2945 2945
3065 3064 3061 3060 3056 3053 3049 3044 3040 3035 3031 3028 3026 3023 3019 3018 3015 3013 3012 3011 3009 3007 3004 3003 3001 2999 2996 2994 2992 2986 2984 2982 2979 2976 2972 2969 2966 2961 2958 2956 2955 2954 2952 2950 2948 2946 2946
3060 3058 3056 3055 3052 3049 3045 3041 3037 3032 3028 3025 3023 3021 3019 3018 3015 3013 3012 3010 3007 3006 3003 3001 2998 2995 2993 2991 2989 2986 2983 2980 2978 2975 2971 2968 2965 2961 2955 2955 2956 2955 2953 2951 2950 2948 2947
3055 3052 3051 3050 3048 3045 3040 3037 3033 3030 3027 3025 3022 3020 3017 3016 3014 3012 3011 3008 3006 3004 3002 3000 2996 2993 2992 2988 2986 2985 2982 2980 2978 2974 2970 2966 2963 2961 2957 2957 2954 2956 2954 2951 2949 2947 2946
3048 3047 3046 3045 3043 3040 3037 3033 3030 3027 3025 3023 3021 3019 3016 3014 3012 3010 3008 3007 3006 3003 3001 2998 2995 2993 2989 2988 2986 2984 2981 2980 2976 2973 2970 2965 2962 2960 2958 2957 2959 2956 2954 2953 2949 2947 2944
3043 3043 3042 3040 3038 3035 3032 3030 3028 3025 3023 3021 3019 3017 3016 3014 3012 3010 3008 3007 3005 3002 3000 2998 2995 2991 2989 2987 2988 2987 2985 2982 2978 2974 2969 2966 2963 2962 2959 2957 2955 2959 2954 2950 2947 2945 2944
3038 3038 3038 3035 3033 3031 3029 3027 3025 3023 3022 3020 3017 3016 3014 3012 3011 3010 3008 3006 3004 3002 3000 2998 2995 2992 2990 2989 2988 2988 2987 2984 2981 2977 2971 2965 2962 2962 2961 2960 2960 2957 2953 2950 2950 2952 2943
3033 3034 3033 3031 3030 3028 3026 3024 3022 3021 3020 3019 3017 3015 3013 3011 3010 3008 3006 3005 3003 3001 2998 2997 2995 2992 2990 2988 2988 2987 2986 2985 2982 2979 2975 2972 2969 2967 2964 2963 2962 2957 2954 2952 2950 2945 2942
3030 3030 3029 3027 3026 3024 3023 3021 3020 3019 3018 3017 3016 3014 3012 3011 3009 3008 3005 3004 3003 3000 2998 2996 2995 2992 2990 2989 2987 2986 2985 2984 2982 2981 2977 2975 2974 2971 2969 2965 2961 2957 2953 2950 2947 2944 2941